Weather observations for the past three days for
Woodward, West Woodward Airport
| Date | Time (cdt) | Wind (kph) | Vis. (km) | Weather | Sky Cond. | Temperature (ºC) | Relative Humidity | Wind Chill (°C) | Heat Index (°C) | Pressure | Precipitation (cm) | ||||||
|---|---|---|---|---|---|---|---|---|---|---|---|---|---|---|---|---|---|
| Air | Dwpt | 6 hour | altimeter (cm) | sea level (mb) | 1 hr | 3 hr | 6 hr | ||||||||||
| Max. | Min. | ||||||||||||||||
| 31 | 10:50 | S 24 G 33 | 16.09 | Fair | CLR | 33.7 | 12.5 | 28% | 33 | 76.33 | 0.0 | ||||||
| 31 | 10:30 | S 26 G 35 | 16.09 | Fair | CLR | 32.6 | 12.6 | 30% | 31 | 76.3 | 0.0 | ||||||
| 31 | 10:10 | S 30 | 16.09 | Fair | CLR | 31.9 | 12.8 | 31% | 31 | 76.3 | 0.0 | ||||||
| 31 | 09:50 | SW 26 G 35 | 16.09 | Fair | CLR | 30.8 | 12.6 | 33% | 30 | 76.3 | 0.0 | ||||||
| 31 | 09:30 | SW 31 G 39 | 16.09 | Fair | CLR | 30 | 12.6 | 34% | 29 | 76.33 | 0.0 | ||||||
| 31 | 09:10 | SW 26 G 39 | 16.09 | Fair | CLR | 29.5 | 12.6 | 35% | 29 | 76.33 | 0.0 | ||||||
| 31 | 08:50 | S 28 G 35 | 16.09 | Fair | CLR | 28.7 | 12.8 | 38% | 28 | 76.3 | 0.0 | ||||||
| 31 | 08:30 | S 26 G 31 | 16.09 | Fair | CLR | 27.8 | 12.7 | 39% | 27 | 76.28 | 0.0 | ||||||
| 31 | 08:10 | S 24 | 16.09 | Fair | CLR | 27 | 12.7 | 41% | 27 | 76.28 | 0.0 | ||||||
| 31 | 07:50 | S 15 | 16.09 | Fair | CLR | 26 | 12.5 | 43% | 26 | 76.28 | 0.0 | ||||||
| 31 | 07:30 | S 15 | 16.09 | Fair | CLR | 25.2 | 12.2 | 44% | 26 | 76.25 | 0.0 | ||||||
| 31 | 07:10 | S 13 | 16.09 | Fair | CLR | 25.5 | 12 | 43% | 26 | 76.25 | 0.0 | ||||||
| 31 | 06:50 | S 17 | 16.09 | Fair | CLR | 25.8 | 11.7 | 30.2 | 25.7 | 41% | 26 | 76.25 | 0.0 | ||||
| 31 | 06:30 | S 20 | 16.09 | Fair | CLR | 25.9 | 11.5 | 41% | 26 | 76.23 | 0.0 | ||||||
| 31 | 06:10 | S 20 | 16.09 | Fair | CLR | 25.8 | 11.1 | 40% | 26 | 76.23 | 0.0 | ||||||
| 31 | 05:50 | S 22 G 31 | 16.09 | Fair | CLR | 26.1 | 11 | 39% | 26 | 76.23 | 0.0 | ||||||
| 31 | 05:30 | S 22 G 30 | 16.09 | Fair | CLR | 26.2 | 10.7 | 38% | 26 | 76.23 | 0.0 | ||||||
| 31 | 05:10 | S 22 G 30 | 16.09 | Fair | CLR | 26.5 | 10.5 | 37% | 26 | 76.2 | 0.0 | ||||||
| 31 | 04:50 | S 22 G 33 | 16.09 | Fair | CLR | 26.5 | 10.3 | 36% | 26 | 76.2 | 0.0 | ||||||
| 31 | 04:30 | S 24 G 33 | 16.09 | Fair | CLR | 26.6 | 10.2 | 36% | 26 | 76.17 | 0.0 | ||||||
| 31 | 04:10 | S 26 | 16.09 | Fair | CLR | 26.8 | 10 | 35% | 26 | 76.17 | 0.0 | ||||||
| 31 | 03:50 | S 22 | 16.09 | Fair | CLR | 27 | 10 | 34% | 27 | 76.15 | 0.0 | ||||||
| 31 | 03:30 | S 26 G 33 | 16.09 | Fair | CLR | 27.3 | 10 | 34% | 27 | 76.15 | 0.0 | ||||||
| 31 | 03:10 | S 26 G 37 | 16.09 | Fair | CLR | 27.7 | 10 | 33% | 27 | 76.15 | 0.0 | ||||||
| 31 | 02:50 | S 26 G 33 | 16.09 | Fair | CLR | 28 | 10 | 32% | 27 | 76.15 | 0.0 | ||||||
| 31 | 02:30 | S 28 G 37 | 16.09 | Fair | CLR | 28.2 | 10 | 32% | 27 | 76.15 | 0.0 | ||||||
| 31 | 02:10 | S 26 G 33 | 16.09 | Fair | CLR | 28.5 | 10.2 | 32% | 28 | 76.15 | 0.0 | ||||||
| 31 | 01:50 | S 26 G 37 | 16.09 | Fair | CLR | 29 | 10.3 | 31% | 28 | 76.15 | 0.0 | ||||||
| 31 | 01:30 | S 28 G 35 | 16.09 | Fair | CLR | 29.2 | 10.5 | 31% | 28 | 76.15 | 0.0 | ||||||
| 31 | 01:10 | S 26 G 35 | 16.09 | Fair | CLR | 29.7 | 10.7 | 31% | 29 | 76.12 | 0.0 | ||||||
| 31 | 00:50 | S 26 G 39 | 16.09 | Fair | CLR | 30.5 | 10.7 | 37.6 | 30.5 | 29% | 29 | 76.12 | 0.0 | ||||
| 31 | 00:30 | S 30 G 44 | 16.09 | Fair | CLR | 30.8 | 10.8 | 29% | 29 | 76.1 | 0.0 | ||||||
| 31 | 00:10 | S 33 | 16.09 | Fair and Breezy | CLR | 31 | 10.9 | 29% | 30 | 76.07 | 0.0 | ||||||
| 30 | 23:50 | S 33 G 41 | 16.09 | Fair and Breezy | CLR | 31.1 | 10.7 | 28% | 30 | 76.05 | 0.0 | ||||||
| 30 | 23:30 | S 30 G 43 | 16.09 | Fair | CLR | 31.2 | 10.8 | 28% | 30 | 76.05 | 0.0 | ||||||
| 30 | 23:10 | S 30 G 39 | 16.09 | Fair | CLR | 31.3 | 11 | 29% | 30 | 76.05 | 0.0 | ||||||
| 30 | 22:50 | S 28 | 16.09 | Fair | CLR | 31.1 | 11.1 | 29% | 30 | 76.05 | 0.0 | ||||||
| 30 | 22:30 | S 24 | 16.09 | Fair | CLR | 31.3 | 11.2 | 29% | 30 | 76.05 | 0.0 | ||||||
| 30 | 22:10 | S 20 G 31 | 16.09 | Fair | CLR | 32.1 | 11.2 | 28% | 31 | 76.05 | 0.0 | ||||||
| 30 | 21:50 | S 24 | 16.09 | Fair | CLR | 32.3 | 11.3 | 28% | 31 | 76.05 | 0.0 | ||||||
| 30 | 21:30 | S 22 | 16.09 | Fair | CLR | 32.7 | 11.5 | 27% | 31 | 76.05 | 0.0 | ||||||
| 30 | 21:10 | S 22 | 16.09 | Fair | CLR | 33 | 11.6 | 27% | 32 | 76.02 | 0.0 | ||||||
| 30 | 20:50 | S 20 | 16.09 | Fair | CLR | 33.4 | 11.9 | 27% | 32 | 76 | 0.0 | ||||||
| 30 | 20:30 | S 20 | 16.09 | Fair | CLR | 34 | 12 | 26% | 33 | 75.97 | 0.0 | ||||||
| 30 | 20:10 | S 20 G 31 | 16.09 | Fair | CLR | 34.7 | 11.9 | 25% | 33 | 75.95 | 0.0 | ||||||
| 30 | 19:50 | S 20 | 16.09 | Fair | CLR | 35.5 | 12 | 24% | 34 | 75.97 | 0.0 | ||||||
| 30 | 19:30 | S 24 G 33 | 16.09 | Fair | CLR | 36.5 | 12 | 23% | 35 | 75.95 | 0.0 | ||||||
| 30 | 19:10 | S 24 G 33 | 16.09 | Fair | CLR | 37.2 | 11.8 | 22% | 36 | 75.97 | 0.0 | ||||||
| 30 | 18:50 | S 22 G 33 | 16.09 | Fair | CLR | 37.7 | 12.1 | 39.7 | 37.7 | 21% | 37 | 75.97 | 0.0 | ||||
| 30 | 18:30 | S 26 G 31 | 16.09 | Fair | CLR | 38.3 | 11.7 | 20% | 37 | 75.95 | 0.0 | ||||||
| 30 | 18:10 | S 22 G 31 | 16.09 | Fair | CLR | 38.9 | 11.4 | 19% | 38 | 75.95 | 0.0 | ||||||
| 30 | 17:50 | S 20 G 37 | 16.09 | Fair | CLR | 39 | 11.5 | 19% | 38 | 75.95 | 0.0 | ||||||
| 30 | 17:30 | S 30 G 37 | 16.09 | Fair | CLR | 39.2 | 11.3 | 19% | 38 | 75.95 | 0.0 | ||||||
| 30 | 17:10 | S 28 G 41 | 16.09 | Fair | CLR | 39.3 | 11.6 | 19% | 38 | 75.95 | 0.0 | ||||||
| 30 | 16:50 | S 26 G 37 | 16.09 | Fair | CLR | 39.2 | 10.9 | 18% | 38 | 75.95 | 0.0 | ||||||
| 30 | 16:30 | S 30 G 41 | 16.09 | Fair | CLR | 39.5 | 10.9 | 18% | 38 | 75.95 | 0.0 | ||||||
| 30 | 16:10 | S 31 G 39 | 16.09 | Fair | CLR | 39.6 | 10.9 | 18% | 38 | 75.97 | 0.0 | ||||||
| 30 | 15:50 | S 24 G 37 | 16.09 | Fair | CLR | 39.4 | 10.6 | 18% | 38 | 75.97 | 0.0 | ||||||
| 30 | 15:30 | S 30 G 46 | 16.09 | Fair | CLR | 39.6 | 10.8 | 18% | 38 | 76 | 0.0 | ||||||
| 30 | 15:10 | S 28 G 41 | 16.09 | Fair | CLR | 39.2 | 10.9 | 18% | 38 | 76 | 0.0 | ||||||
| 30 | 14:50 | S 24 G 41 | 16.09 | Fair | CLR | 39.2 | 10.8 | 18% | 38 | 76.02 | 0.0 | ||||||
| 30 | 14:30 | S 30 G 41 | 16.09 | Fair | CLR | 39.5 | 10.9 | 18% | 38 | 76.05 | 0.0 | ||||||
| 30 | 14:10 | S 28 G 41 | 16.09 | Fair | CLR | 39.1 | 10.6 | 18% | 38 | 76.05 | 0.0 | ||||||
| 30 | 13:50 | S 30 G 41 | 16.09 | Fair | CLR | 38.7 | 11.1 | 19% | 37 | 76.07 | 0.0 | ||||||
| 30 | 13:30 | SW 31 G 50 | 16.09 | Fair | CLR | 38.6 | 11.3 | 19% | 37 | 76.07 | 0.0 | ||||||
| 30 | 13:10 | S 26 G 41 | 16.09 | Fair | CLR | 38 | 12.6 | 22% | 37 | 76.1 | 0.0 | ||||||
| 30 | 12:50 | S 28 G 39 | 16.09 | Fair | CLR | 37.7 | 13.4 | 37.7 | 25.9 | 23% | 37 | 76.12 | 0.0 | ||||
| 30 | 12:30 | SW 33 G 39 | 16.09 | Fair and Breezy | CLR | 37.3 | 13.2 | 24% | 37 | 76.12 | 0.0 | ||||||
| 30 | 12:10 | S 33 G 43 | 16.09 | Fair and Breezy | CLR | 36.7 | 13.4 | 25% | 36 | 76.15 | 0.0 | ||||||
| 30 | 11:50 | SW 28 G 39 | 16.09 | Fair | CLR | 36 | 13.2 | 25% | 35 | 76.17 | 0.0 | ||||||
| 30 | 11:30 | S 24 G 35 | 16.09 | Fair | CLR | 35.4 | 13.3 | 26% | 34 | 76.17 | 0.0 | ||||||
| 30 | 11:10 | S 26 G 33 | 16.09 | Fair | CLR | 34.5 | 13.3 | 28% | 34 | 76.17 | 0.0 | ||||||
| 30 | 10:50 | S 30 G 39 | 16.09 | Fair | CLR | 33.7 | 13.3 | 29% | 33 | 76.17 | 0.0 | ||||||
| 30 | 10:30 | SW 28 G 37 | 16.09 | Fair | CLR | 33 | 13.2 | 30% | 32 | 76.17 | 0.0 | ||||||
| 30 | 10:10 | SW 24 G 33 | 16.09 | Fair | CLR | 32.3 | 13.5 | 32% | 31 | 76.17 | 0.0 | ||||||
| 30 | 09:50 | SW 30 G 37 | 16.09 | Fair | CLR | 31.3 | 13.4 | 34% | 30 | 76.17 | 0.0 | ||||||
| 30 | 09:30 | S 30 G 39 | 16.09 | Fair | CLR | 30.2 | 13.5 | 36% | 29 | 76.17 | 0.0 | ||||||
| 30 | 09:10 | S 28 G 37 | 16.09 | Fair | CLR | 29.3 | 13.5 | 38% | 29 | 76.17 | 0.0 | ||||||
| 30 | 08:50 | S 24 G 39 | 16.09 | Fair | CLR | 28.8 | 13.7 | 40% | 28 | 76.2 | 0.0 | ||||||
| 30 | 08:30 | S 24 G 35 | 16.09 | Fair | CLR | 28.1 | 13.7 | 41% | 28 | 76.17 | 0.0 | ||||||
| 30 | 08:10 | S 22 G 33 | 16.09 | Fair | CLR | 27.1 | 13.5 | 43% | 27 | 76.17 | 0.0 | ||||||
| 30 | 07:50 | S 20 G 30 | 16.09 | Fair | CLR | 26.5 | 13.4 | 44% | 27 | 76.17 | 0.0 | ||||||
| 30 | 07:30 | S 26 G 31 | 16.09 | Fair | CLR | 26.2 | 13.2 | 45% | 27 | 76.15 | 0.0 | ||||||
| 30 | 07:10 | S 26 | 16.09 | Fair | CLR | 26 | 13 | 45% | 26 | 76.12 | 0.0 | ||||||
| 30 | 06:50 | S 26 G 37 | 16.09 | Fair | CLR | 26.2 | 12.8 | 30 | 26.2 | 43% | 26 | 76.1 | 0.0 | ||||
| 30 | 06:30 | S 31 G 43 | 16.09 | Fair | CLR | 26.8 | 12.7 | 42% | 27 | 76.07 | 0.0 | ||||||
| 30 | 06:10 | S 31 G 44 | 16.09 | Fair | CLR | 27 | 12.5 | 41% | 27 | 76.1 | 0.0 | ||||||
| 30 | 05:50 | S 28 G 41 | 16.09 | Fair | CLR | 26.8 | 12.2 | 40% | 27 | 76.07 | 0.0 | ||||||
| 30 | 05:30 | S 28 | 16.09 | Fair | CLR | 26.9 | 12 | 40% | 27 | 76.1 | 0.0 | ||||||
| 30 | 05:10 | S 28 G 37 | 16.09 | Fair | CLR | 27 | 11.6 | 38% | 27 | 76.1 | 0.0 | ||||||
| 30 | 04:30 | S 31 G 37 | 16.09 | Fair | CLR | 27.5 | 11.2 | 36% | 27 | 76.1 | 0.0 | ||||||
| 30 | 04:10 | S 28 | 16.09 | Fair | CLR | 27.5 | 11 | 36% | 27 | 76.1 | 0.0 | ||||||
| 30 | 03:50 | S 30 G 39 | 16.09 | Fair | CLR | 27.4 | 10.8 | 35% | 27 | 76.1 | 0.0 | ||||||
| 30 | 03:30 | S 24 | 16.09 | Fair | CLR | 27.5 | 10.7 | 35% | 27 | 76.1 | 0.0 | ||||||
| 30 | 03:10 | S 26 G 33 | 16.09 | Fair | CLR | 27.8 | 10.7 | 34% | 27 | 76.12 | 0.0 | ||||||
| 30 | 02:50 | S 24 | 16.09 | Fair | CLR | 28 | 10.6 | 34% | 27 | 76.12 | 0.0 | ||||||
| 30 | 02:30 | S 26 G 33 | 16.09 | Fair | CLR | 28.2 | 10.5 | 33% | 27 | 76.12 | 0.0 | ||||||
| 30 | 02:10 | S 24 G 33 | 16.09 | Fair | CLR | 28.6 | 10.3 | 32% | 28 | 76.12 | 0.0 | ||||||
| 30 | 01:50 | S 26 G 37 | 16.09 | Fair | CLR | 29 | 10.1 | 31% | 28 | 76.1 | 0.0 | ||||||
| 30 | 01:30 | S 30 G 39 | 16.09 | Fair | CLR | 29.5 | 9.8 | 29% | 28 | 76.12 | 0.0 | ||||||
| 30 | 01:10 | S 28 G 37 | 16.09 | Fair | CLR | 29.8 | 9.2 | 28% | 28 | 76.12 | 0.0 | ||||||
| 30 | 00:50 | S 30 G 37 | 16.09 | Fair | CLR | 30.1 | 8.7 | 36.5 | 30.1 | 26% | 29 | 76.12 | 0.0 | ||||
| 30 | 00:30 | S 30 G 41 | 16.09 | Fair | CLR | 30.6 | 8.5 | 25% | 29 | 76.12 | 0.0 | ||||||
| 30 | 00:10 | S 28 G 39 | 16.09 | Fair | CLR | 31.1 | 8.5 | 24% | 29 | 76.12 | 0.0 | ||||||
| 29 | 23:50 | S 30 G 37 | 16.09 | Fair | CLR | 31.1 | 8.6 | 25% | 29 | 76.12 | 0.0 | ||||||
| 29 | 23:30 | S 24 G 37 | 16.09 | Fair | CLR | 31.1 | 8.7 | 25% | 29 | 76.12 | 0.0 | ||||||
| 29 | 23:10 | S 28 | 16.09 | Fair | CLR | 31.4 | 9 | 25% | 30 | 76.12 | 0.0 | ||||||
| 29 | 22:50 | S 28 G 35 | 16.09 | Fair | CLR | 31.5 | 9.4 | 25% | 30 | 76.12 | 0.0 | ||||||
| 29 | 22:30 | S 30 G 37 | 16.09 | Fair | CLR | 31.6 | 9.6 | 26% | 30 | 76.1 | 0.0 | ||||||
| 29 | 22:10 | S 22 | 16.09 | Fair | CLR | 31.8 | 9.6 | 25% | 30 | 76.1 | 0.0 | ||||||
| 29 | 21:50 | S 24 | 16.09 | Fair | CLR | 32.3 | 9.7 | 25% | 31 | 76.07 | 0.0 | ||||||
| 29 | 21:30 | S 24 | 16.09 | Fair | CLR | 32.6 | 10 | 25% | 31 | 76.07 | 0.0 | ||||||
| 29 | 21:10 | S 22 | 16.09 | Fair | CLR | 32.6 | 9.9 | 25% | 31 | 76.05 | 0.0 | ||||||
| 29 | 20:50 | S 19 | 16.09 | Fair | CLR | 33.1 | 9 | 23% | 31 | 76.05 | 0.0 | ||||||
| 29 | 20:30 | S 22 | 16.09 | Fair | CLR | 33.5 | 9.1 | 22% | 32 | 76.02 | 0.0 | ||||||
| 29 | 20:10 | S 19 G 30 | 16.09 | Fair | CLR | 34.2 | 10 | 23% | 32 | 76.02 | 0.0 | ||||||
| 29 | 19:50 | S 24 | 16.09 | Fair | CLR | 34.9 | 10.1 | 22% | 33 | 76.02 | 0.0 | ||||||
| 29 | 19:30 | S 26 | 16.09 | Fair | CLR | 35.7 | 10.6 | 22% | 34 | 76.02 | 0.0 | ||||||
| 29 | 19:10 | S 26 G 41 | 16.09 | Fair | CLR | 36.4 | 10.7 | 21% | 35 | 76.02 | 0.0 | ||||||
| 29 | 18:50 | S 28 | 16.09 | Fair | CLR | 36.4 | 10.8 | 39.3 | 36.4 | 21% | 35 | 76.02 | 0.0 | ||||
| 29 | 18:30 | S 26 G 39 | 16.09 | Fair | CLR | 37.6 | 11.1 | 20% | 36 | 76.02 | 0.0 | ||||||
| 29 | 18:10 | S 31 G 39 | 16.09 | Fair | CLR | 38 | 11.2 | 20% | 37 | 76.02 | 0.0 | ||||||
| 29 | 17:50 | S 30 G 43 | 16.09 | Fair | CLR | 38.3 | 11.3 | 20% | 37 | 76.02 | 0.0 | ||||||
| 29 | 17:30 | S 28 G 41 | 16.09 | Fair | CLR | 38.5 | 11.2 | 19% | 37 | 76.02 | 0.0 | ||||||
| 29 | 17:10 | S 33 G 44 | 16.09 | Fair and Breezy | CLR | 38.4 | 11.4 | 20% | 37 | 76.02 | 0.0 | ||||||
| 29 | 16:50 | S 28 G 41 | 16.09 | Fair | CLR | 38.8 | 11.1 | 19% | 37 | 76.05 | 0.0 | ||||||
| 29 | 16:30 | S 33 G 46 | 16.09 | Fair and Breezy | CLR | 38.9 | 11.1 | 19% | 38 | 76.05 | 0.0 | ||||||
| 29 | 16:10 | S 30 G 43 | 16.09 | Fair | CLR | 38.8 | 11 | 19% | 37 | 76.07 | 0.0 | ||||||
| 29 | 15:50 | S 30 G 46 | 16.09 | Fair | CLR | 39.1 | 11.3 | 19% | 38 | 76.1 | 0.0 | ||||||
| 29 | 15:30 | S 28 G 35 | 16.09 | Fair | CLR | 39 | 11.2 | 19% | 38 | 76.12 | 0.0 | ||||||
| 29 | 15:10 | S 30 G 43 | 16.09 | Fair | CLR | 39.2 | 12 | 20% | 38 | 76.15 | 0.0 | ||||||
| 29 | 14:50 | S 28 G 43 | 16.09 | Fair | CLR | 38.7 | 11.8 | 20% | 38 | 76.17 | 0.0 | ||||||
| 29 | 14:30 | S 30 G 43 | 16.09 | Fair | CLR | 38.5 | 11.7 | 20% | 37 | 76.17 | 0.0 | ||||||
| 29 | 14:10 | SW 26 G 41 | 16.09 | Fair | CLR | 38.2 | 12.2 | 21% | 37 | 76.2 | 0.0 | ||||||
| 29 | 13:50 | S 22 G 39 | 16.09 | Fair | CLR | 38.2 | 12.7 | 22% | 37 | 76.23 | 0.0 | ||||||
| 29 | 13:30 | S 31 G 41 | 16.09 | Fair | CLR | 37.7 | 12.4 | 22% | 37 | 76.25 | 0.0 | ||||||
| 29 | 13:10 | S 30 G 41 | 16.09 | Fair | CLR | 37.7 | 13 | 23% | 37 | 76.25 | 0.0 | ||||||
| 29 | 12:50 | SW 33 G 48 | 16.09 | Fair and Breezy | CLR | 37.2 | 12.5 | 37.3 | 24.3 | 23% | 36 | 76.3 | 0.0 | ||||
| 29 | 12:30 | S 35 G 44 | 16.09 | Fair and Breezy | CLR | 36.8 | 13.1 | 24% | 36 | 76.33 | 0.0 | ||||||
| 29 | 12:10 | SW 33 G 41 | 16.09 | Fair and Breezy | CLR | 36.2 | 13.1 | 25% | 35 | 76.33 | 0.0 | ||||||
| 29 | 11:50 | SW 30 G 44 | 16.09 | Fair | CLR | 35.5 | 13.3 | 26% | 35 | 76.35 | 0.0 | ||||||
| 29 | 11:30 | S 28 G 37 | 16.09 | Fair | CLR | 34.9 | 13.4 | 27% | 34 | 76.38 | 0.0 | ||||||
| 29 | 11:10 | SW 33 G 41 | 16.09 | Fair and Breezy | CLR | 33.7 | 13.7 | 30% | 33 | 76.38 | 0.0 | ||||||
| 29 | 10:50 | SW 33 G 43 | 16.09 | Partly Cloudy and Breezy | SCT110 | 32.8 | 13.5 | 31% | 32 | 76.38 | 0.0 | ||||||
| 29 | 10:30 | SW 31 G 41 | 16.09 | Partly Cloudy | SCT110 | 32.4 | 13.6 | 32% | 32 | 76.38 | 0.0 | ||||||
| 29 | 10:10 | SW 28 G 41 | 16.09 | Fair | CLR | 32 | 13.4 | 32% | 31 | 76.4 | 0.0 | ||||||
| 29 | 09:50 | SW 30 G 43 | 16.09 | Fair | CLR | 31.2 | 13.1 | 33% | 30 | 76.4 | 0.0 | ||||||
| 29 | 09:30 | S 30 G 35 | 16.09 | Fair | CLR | 30.9 | 13 | 33% | 30 | 76.4 | 0.0 | ||||||
| 29 | 09:10 | S 30 G 39 | 16.09 | Fair | CLR | 30.1 | 12.7 | 34% | 29 | 76.4 | 0.0 | ||||||
| 29 | 08:50 | S 30 G 39 | 16.09 | Fair | CLR | 29.5 | 12.6 | 35% | 29 | 76.4 | 0.0 | ||||||
| 29 | 08:30 | S 20 G 28 | 16.09 | Fair | CLR | 28 | 12.5 | 38% | 28 | 76.4 | 0.0 | ||||||
| 29 | 08:10 | S 22 | 16.09 | Fair | CLR | 26.7 | 12.2 | 41% | 27 | 76.4 | 0.0 | ||||||
| 29 | 07:50 | S 22 | 16.09 | Fair | CLR | 25.8 | 11.8 | 42% | 26 | 76.4 | 0.0 | ||||||
| 29 | 07:10 | S 17 | 16.09 | Fair | CLR | 24.4 | 11.3 | 44% | 26 | 76.4 | 0.0 | ||||||
| 29 | 06:50 | S 19 | 16.09 | Fair | CLR | 24.4 | 11.2 | 28 | 24.4 | 44% | 26 | 76.38 | 0.0 | ||||
| 29 | 06:30 | S 19 | 16.09 | Fair | CLR | 24.8 | 11 | 42% | 26 | 76.38 | 0.0 | ||||||
| 29 | 06:10 | S 20 | 16.09 | Fair | CLR | 25 | 10.8 | 41% | 26 | 76.38 | 0.0 | ||||||
| 29 | 05:50 | S 22 | 16.09 | Fair | CLR | 25.2 | 10.8 | 40% | 26 | 76.38 | 0.0 | ||||||
| 29 | 05:30 | S 24 | 16.09 | Fair | CLR | 25.4 | 10.7 | 40% | 26 | 76.38 | 0.0 | ||||||
| 29 | 05:10 | S 19 | 16.09 | Fair | CLR | 25.3 | 10.3 | 39% | 26 | 76.4 | 0.0 | ||||||
| 29 | 04:50 | S 19 | 16.09 | Fair | CLR | 25.2 | 10 | 38% | 26 | 76.4 | 0.0 | ||||||
| 29 | 04:30 | S 17 | 16.09 | Fair | CLR | 25.1 | 9.5 | 37% | 26 | 76.4 | 0.0 | ||||||
| 29 | 04:10 | S 19 | 16.09 | Fair | CLR | 25.3 | 9.1 | 36% | 26 | 76.4 | 0.0 | ||||||
| 29 | 03:50 | S 20 G 28 | 16.09 | Fair | CLR | 24.8 | 9.1 | 37% | 26 | 76.4 | 0.0 | ||||||
| 29 | 03:30 | S 19 | 16.09 | Fair | CLR | 25 | 9 | 36% | 26 | 76.4 | 0.0 | ||||||
| 29 | 03:10 | SE 20 | 16.09 | Fair | CLR | 25.5 | 8.8 | 35% | 26 | 76.4 | 0.0 | ||||||
| 29 | 02:50 | SE 22 | 16.09 | Fair | CLR | 26 | 8.7 | 34% | 26 | 76.43 | 0.0 | ||||||
| 29 | 02:30 | S 24 | 16.09 | Fair | CLR | 26.3 | 8.5 | 32% | 26 | 76.43 | 0.0 | ||||||
| 29 | 02:10 | S 26 | 16.09 | Fair | CLR | 26.6 | 8.3 | 31% | 26 | 76.4 | 0.0 | ||||||
| 29 | 01:50 | SE 26 | 16.09 | Fair | CLR | 27 | 8.2 | 31% | 26 | 76.43 | 0.0 | ||||||
| 29 | 01:30 | SE 28 G 37 | 16.09 | Fair | CLR | 27.5 | 8.2 | 30% | 27 | 76.43 | 0.0 | ||||||
| 29 | 01:10 | S 26 | 16.09 | Fair | CLR | 27.7 | 8.1 | 29% | 27 | 76.43 | 0.0 | ||||||
| 29 | 00:50 | S 26 | 16.09 | Fair | CLR | 28.1 | 8 | 35.2 | 26.5 | 28% | 27 | 76.43 | 0.0 | ||||
| 29 | 00:30 | SE 26 | 16.09 | Fair | CLR | 28.1 | 8 | 28% | 27 | 76.43 | 0.0 | ||||||
| 29 | 00:10 | SE 22 G 33 | 16.09 | Fair | CLR | 27.7 | 8.9 | 31% | 27 | 76.43 | 0.0 | ||||||
| 28 | 23:50 | SE 22 | 16.09 | Fair | CLR | 27.8 | 9.6 | 32% | 27 | 76.43 | 0.0 | ||||||
| 28 | 23:30 | SE 20 | 16.09 | Fair | CLR | 27.2 | 10.1 | 34% | 27 | 76.43 | 0.0 | ||||||
| 28 | 23:10 | SE 15 | 16.09 | Fair | CLR | 26.9 | 10.5 | 36% | 27 | 76.43 | 0.0 | ||||||
| 28 | 22:50 | SE 13 | 16.09 | Fair | CLR | 26.7 | 10.5 | 36% | 26 | 76.43 | 0.0 | ||||||
| 28 | 22:30 | S 11 | 16.09 | Fair | CLR | 27 | 10.8 | 36% | 27 | 76.43 | 0.0 | ||||||
| 28 | 22:10 | S 13 | 16.09 | Fair | CLR | 27.3 | 11 | 36% | 27 | 76.43 | 0.0 | ||||||
| 28 | 21:50 | S 13 | 16.09 | Fair | CLR | 27.5 | 11 | 36% | 27 | 76.4 | 0.0 | ||||||
| 28 | 21:30 | S 11 | 16.09 | Fair | CLR | 27.6 | 10.8 | 35% | 27 | 76.38 | 0.0 | ||||||
| 28 | 21:10 | S 13 | 16.09 | Fair | CLR | 29.1 | 10.8 | 32% | 28 | 76.38 | 0.0 | ||||||
| 28 | 20:50 | S 13 | 16.09 | Fair | CLR | 29 | 10.9 | 33% | 28 | 76.33 | 0.0 | ||||||
| 28 | 20:30 | S 13 | 16.09 | Fair | CLR | 29.2 | 10.8 | 32% | 28 | 76.33 | 0.0 | ||||||
| 28 | 20:10 | S 11 | 16.09 | Fair | CLR | 30 | 10.9 | 31% | 29 | 76.3 | 0.0 | ||||||
| 28 | 19:50 | S 11 | 16.09 | Fair | CLR | 32.2 | 10.8 | 27% | 31 | 76.3 | 0.0 | ||||||
| 28 | 19:30 | S 13 | 16.09 | Fair | CLR | 34 | 10.1 | 23% | 32 | 76.3 | 0.0 | ||||||
| 28 | 19:10 | S 17 | 16.09 | Fair | CLR | 34.8 | 9.9 | 22% | 33 | 76.3 | 0.0 | ||||||
| 28 | 18:50 | SE 19 | 16.09 | Fair | CLR | 35.3 | 9.6 | 36.6 | 33.6 | 21% | 33 | 76.3 | 0.0 | ||||
| 28 | 18:30 | SE 19 | 16.09 | Fair | CLR | 35.6 | 9.9 | 21% | 34 | 76.3 | 0.0 | ||||||
| 28 | 18:10 | SE 19 | 16.09 | Fair | CLR | 36 | 10.1 | 21% | 34 | 76.3 | 0.0 | ||||||
| 28 | 17:50 | SE 19 | 16.09 | Fair | CLR | 36.2 | 10.7 | 21% | 35 | 76.3 | 0.0 | ||||||
| 28 | 17:30 | S 15 | 16.09 | Partly Cloudy | SCT120 | 36.2 | 10.4 | 21% | 35 | 76.33 | 0.0 | ||||||
| 28 | 17:10 | SE 22 | 16.09 | Partly Cloudy | SCT120 | 36.6 | 10.2 | 20% | 35 | 76.33 | 0.0 | ||||||
| 28 | 16:50 | S 17 | 16.09 | Partly Cloudy | SCT120 | 35.7 | 10.4 | 21% | 34 | 76.35 | 0.0 | ||||||
| 28 | 16:30 | SE 11 | 16.09 | Partly Cloudy | SCT120 | 35.9 | 10.4 | 21% | 34 | 76.38 | 0.0 | ||||||
| 28 | 16:10 | E 13 | 16.09 | Fair | CLR | 36 | 10.6 | 21% | 34 | 76.4 | 0.0 | ||||||
| 28 | 15:50 | S 6 | 16.09 | Fair | CLR | 35.8 | 11.1 | 22% | 34 | 76.43 | 0.0 | ||||||
| 28 | 15:30 | S 11 G 26 | 16.09 | Fair | CLR | 35.9 | 11.4 | 23% | 34 | 76.45 | 0.0 | ||||||
| 28 | 15:10 | SW 13 | 16.09 | Fair | CLR | 35.8 | 11.3 | 23% | 34 | 76.48 | 0.0 | ||||||
| 28 | 14:50 | S 13 G 31 | 16.09 | Fair | CLR | 35.5 | 12 | 24% | 34 | 76.5 | 0.0 | ||||||
| 28 | 14:30 | S 13 G 28 | 16.09 | Fair | CLR | 35.4 | 12.4 | 25% | 34 | 76.5 | 0.0 | ||||||
| 28 | 14:10 | SW 19 G 31 | 16.09 | Fair | CLR | 34.9 | 11.4 | 24% | 33 | 76.53 | 0.0 | ||||||
| 28 | 13:50 | S 22 G 31 | 16.09 | Fair | CLR | 34.5 | 12.8 | 27% | 33 | 76.56 | 0.0 | ||||||
| 28 | 13:30 | S 17 G 35 | 16.09 | Fair | CLR | 34.3 | 13.4 | 28% | 33 | 76.58 | 0.0 | ||||||
| 28 | 13:10 | S 20 G 31 | 16.09 | Fair | CLR | 33.9 | 13.5 | 29% | 33 | 76.61 | 0.0 | ||||||
| 28 | 12:50 | SW 24 G 33 | 16.09 | Fair | CLR | 33.8 | 13.3 | 33.8 | 21.7 | 29% | 33 | 76.63 | 0.0 | ||||
| 28 | 12:30 | S 17 G 30 | 16.09 | Fair | CLR | 32.8 | 13.5 | 31% | 32 | 76.66 | 0.0 | ||||||
| 28 | 12:10 | SW 20 G 30 | 16.09 | Partly Cloudy | SCT120 | 33 | 14 | 32% | 32 | 76.68 | 0.0 | ||||||
| 28 | 11:50 | S 20 G 30 | 16.09 | Partly Cloudy | SCT120 | 32.7 | 13.4 | 31% | 32 | 76.68 | 0.0 | ||||||
| 28 | 11:30 | S 20 G 28 | 16.09 | Fair | CLR | 32.3 | 14.1 | 33% | 32 | 76.71 | 0.0 | ||||||
| 28 | 11:10 | S 15 G 26 | 16.09 | Fair | CLR | 32.2 | 14.3 | 34% | 32 | 76.71 | 0.0 | ||||||
| Date | Time (cdt) | Wind (kph) | Vis. (km) | Weather | Sky Cond. | Air | Dwpt | Max. | Min. | Relative Humidity | Wind Chill (°C) | Heat Index (°C) | altimeter (cm) | sea level (mb) | 1 hr | 3 hr | 6 hr |
| 6 hour | |||||||||||||||||
| Temperature (ºC) | Pressure | Precipitation (cm) | |||||||||||||||